STARLINK-32947, 63121

Orbit data source: Space-Track

STARLINK-32947, 63121 is a payload satellite owned by SpaceX/Seattle (US) in LEO that was launched on Thu, 27 Feb 2025 UTC via an FALCON 9 launch vehicle from the Air Force Eastern Test Range (AFETR). Payload-class satellites include a variety of spacecraft equipped with specific instruments for various scientific and technological missions. These include communications satellites like Starlink; space stations such as the ISS; scientific satellites like the Hubble; Earth observation satellites from companies like Planet Labs, Umbra, and HawkEye 360; GPS; miniature CubeSats for education and research; and military/defense satellites.

Loading next visibility...
Identifier
63121, 2025-039T
Orbit
LEO
Last TLE update
13 hours ago
Origin
Manufacturer
SpaceX/Seattle
Mission
Operational Commercial Communications
Bus & Motor
STARLINK V2M, Unknown motor
Mass
730 kg wet, ~700 kg dry
Launch date (UTC)
2025-02-27 (4 months ago)
Launch vehicle
FALCON 9
Launch site
Air Force Eastern Test Range (AFETR)
Object type
Payload
Rocket body
Debris
Shape & HBR
Box + 2 Pan, 29 m
Radar Cross Section
33.884 m², Large (>1 m²)

Expand to show TLE details & history

TLE from 13 hours ago
0 STARLINK-32947
1 63121U 25039T   25181.76249012  .00015459  00000-0  56991-3 0  9997
2 63121  42.9996 355.0203 0001048 270.1140  89.9591 15.27591431 19548
Epoch: 2025-06-30T18:17Z
TLE epoch observation values (Epoch: 2025-06-30T18:17:59.146Z)
Latitude
-0.00005°
Longitude
161.45616°
Altitude
482.79 km
Speed
7.626 km/s
True Right ascension
23h 40m 04s
True Declination
0° 00' 00"
Sunlit
Object was in daylight at epoch
Visualization orbit readout
Latitude
43.0145°
Longitude
-117.3219°
Altitude
486.796 km
Speed
7.627 km/s
Apparent Right ascension
05h 57m 34s
Apparent Declination
3° 29' 43"
Sunlit
Object is in daylight
Visualization observer readout
Local Sidereal Time
18:51:34
Azimuth
19.189° NNE
Elevation
-44.853°
Doppler factor
1
Orbital elements
Apogee altitude
485.679 km
Perigee altitude
484.241 km
Semi-major axis
6,863.097 km
Eccentricity
0.0001
Inclination
42.9996°
RAAN
355.0203°
Arg. of periapsis
270.114°
True anomaly
Unknown
Mean anomaly
89.9591°
Eccentric anomaly
Unknown
Mean motion
3.81736 °/min
Orbital period
94.31 mins
BSTAR
0.00056991
Loading maneuver chart data...
Loading SW <> Apogee altitude chart data...
Loading historical data...
Loading historical data...
Loading historical data...
Loading historical data...
Loading historical data...
Loading historical data...
Loading historical data...

STARLINK-32947 Visibility forecast

Observer location: undefined°, undefined°

Span
Click to sort rows by Start time (UTC) header in descending order
Start Az.
Max El. time (UTC)
Max El. Az.
Max El.
End time (UTC)
End Az.
6 mins2025-07-01 14:54:38.800Z220.708° SW2025-07-01 14:57:38.800Z150.783° SSE34.144°2025-07-01 15:00:38.800Z83.021° E
5 mins2025-07-01 16:34:38.800Z274.931° WNW2025-07-01 16:36:38.800Z2.291° NNE41.569°2025-07-01 16:39:38.800Z69.361° E
5 mins2025-07-01 18:13:38.800Z296.251° NW2025-07-01 18:15:38.800Z0.646° NNE39.381°2025-07-01 18:18:38.800Z82.984° E
5 mins2025-07-01 19:52:38.800Z277.837° WNW2025-07-01 19:54:38.800Z212.925° SW41.162°2025-07-01 19:57:38.800Z126.002° SE
|